sat.trackr.live / text

‹ back to catalog

JUPITER 3 (ECHOSTAR 24)

NORAD 57479 · 2023-108A

PAYLOAD ACTIVE UNKNOWN

§ Identity

Operator
Country
US
Launch date
2023-07-29
Launch site
AFETR
Launch vehicle
Mass (kg)
RCS (m²)

Purposes: comms

External: N2YO · Heavens-Above · Gunter

§ Orbital elements

Epoch: 2026-05-24T14:12:07.493760Z

Period
1,436.12 min
Inclination
0.0179°
Eccentricity
0.0001283
Mean motion
1.00270365 rev/d
Perigee alt
35,781.6 km
Apogee alt
35,792.4 km
Semi-major
42,165.1 km
B*
0.0000e+0
RAAN
308.8009°
Arg perigee
121.5371°
Mean anomaly
289.6758°
Rev number
1,040

§ Raw data

JUPITER 3 (ECHOSTAR 24)1 57479U 23108A   26144.59175340  .00000000  00000+0  00000+0 0  99952 57479   0.0179 308.8009 0001283 121.5371 289.6758  1.00270365 10407

JSON: /api/v1/satellites/57479 · /tle

For live sub-satellite position, see the globe view (requires WebGL).

§ Visibility from observer

Set your observer location to see the next 7 days of passes ≥ 10°. The values pass through the URL so the page stays shareable.

No JS? Fill the form by hand. The geolocation button needs JavaScript.